Voltar ao catálogo

STARLINK-33836

AtivoComunicaçõesVLEO
NORAD 63642·PAYLOAD·🇺🇸 United States

Lançado Apr 25, 2025 de Cape Canaveral Space Force Station

Loading…

Próximas Passagens (próximas 24 horas)

TLE

AtualizadoSource: CelesTrak SupGP

Época: Sep 14, 2026, 21:23 UTC

1 63642C 25083J   26257.89145833  .00026486  00000+0  95951-3 0  2576
2 63642  43.0039  16.9655 0001451 273.9487 306.4995 15.27559347    10

Acompanhe STARLINK-33836 em tempo real com AllMySat

Download on the App Store